Weather History for Decimomannu, Italy

Change the Weather History Date:

Friday, November 9, 2012

  Actual Average Record
Temperature  
Mean Temperature 60 °F -  
Max Temperature 73 °F 63 °F 74 °F (2013)
Min Temperature 47 °F 46 °F 39 °F (1998)
Degree Days  
Heating Degree Days 5    
Growing Degree Days 10 (Base 50)    
Moisture  
Dew Point 54 °F    
Average Humidity 81    
Maximum Humidity 94    
Minimum Humidity 55    
Precipitation  
Precipitation 0.00 in 0.08 in - ()
Sea Level Pressure  
Sea Level Pressure 30.07 in    
Wind  
Wind Speed 5 mph ()    
Max Wind Speed 18 mph    
Max Gust Speed -    
Visibility 7.4 miles    
Events      
Averages and records for this station are not official NWS values.
T = Trace of Precipitation, MM = Missing Value Source: Averaged Metar Reports

Daily Weather History Graph

Daily Weather History Graph

Search for Another Location

Airport:

Trip Planner

Search our weather history database for the weather conditions in past years. The results will help you decide how hot, cold, wet, or windy it might be!

Date:

Astronomy

Nov. 09, 2012 Rise Set
Actual Time 7:01 AM CET 5:14 PM CET
Civil Twilight 6:32 AM CET 5:42 PM CET
Nautical Twilight 6:00 AM CET 6:14 PM CET
Astronomical Twilight 5:29 AM CET 6:46 PM CET
Moon 1:44 AM CET (11/9) 2:17 PM CET (11/9)
Length of Visible Light 11h 09m
Length of Day
10h 12m
Waning Crescent, 25% of the Moon is Illuminated
Nov 9
Waning Crescent
Nov 13
New
Nov 20
First Quarter
Nov 28
Full
Dec 6
Last Quarter

Hourly Weather History & Observations

Time (CET) Temp. Dew Point Humidity Pressure Visibility Wind Dir Wind Speed Gust Speed Precip Events Conditions
12:55 AM 50.0 °F 46.4 °F 87% 30.15 in 6.2 mi Calm Calm - N/A   Partly Cloudy
1:00 AM 50 °F 47 °F 84% 30.17 in 9 mi Calm Calm - -   Scattered Clouds
1:55 AM 50.0 °F 46.4 °F 87% 30.12 in 6.2 mi North 2.3 mph - N/A   Partly Cloudy
2:55 AM 50.0 °F 46.4 °F 87% 30.12 in 6.2 mi North 3.5 mph - N/A   Partly Cloudy
3:55 AM 50.0 °F 46.4 °F 87% 30.09 in 6.2 mi North 3.5 mph - N/A   Partly Cloudy
4:00 AM 50 °F 47 °F 84% 30.12 in 9 mi North 3.5 mph - -   Scattered Clouds
4:55 AM 50.0 °F 46.4 °F 87% 30.09 in 6.2 mi North 1.2 mph - N/A   Partly Cloudy
5:55 AM 50.0 °F 46.4 °F 87% 30.09 in 6.2 mi NNE 2.3 mph - N/A   Scattered Clouds
6:55 AM 50.0 °F 46.4 °F 87% 30.09 in 6.2 mi North 3.5 mph - N/A   Scattered Clouds
7:00 AM 50 °F 46 °F 81% 30.11 in 12 mi North 3.5 mph - -   Partly Cloudy
8:55 AM 55.4 °F 51.8 °F 88% 30.09 in 6.2 mi Calm Calm - N/A   Partly Cloudy
9:55 AM 62.6 °F 53.6 °F 72% 30.09 in 6.2 mi SSE 2.3 mph - N/A   Partly Cloudy
10:00 AM 62 °F 54 °F 66% 30.11 in 12 mi SSE 2.3 mph - -   Scattered Clouds
10:55 AM 69.8 °F 59.0 °F 68% 30.06 in 6.2 mi SE 13.8 mph - N/A   Scattered Clouds
11:55 AM 71.6 °F 60.8 °F 69% 30.06 in 6.2 mi SE 13.8 mph - N/A   Partly Cloudy
1:00 PM 73 °F 60 °F 55% 30.05 in 12 mi SSE 13.8 mph - -   Scattered Clouds
1:55 PM 71.6 °F 60.8 °F 69% 30.01 in 6.2 mi SSE 13.8 mph - N/A   Partly Cloudy
2:55 PM 68.0 °F 59.0 °F 73% 30.01 in 6.2 mi SSE 16.1 mph - N/A   Partly Cloudy
3:55 PM 68.0 °F 62.6 °F 83% 30.01 in - SSE 18.4 mph - N/A   Clear
4:00 PM 68 °F 63 °F 80% 30.02 in 12 mi SSE 18.4 mph - -   Clear
4:55 PM 64.4 °F 60.8 °F 88% 30.01 in 6.2 mi SSE 13.8 mph - N/A   Partly Cloudy
5:55 PM 62.6 °F 60.8 °F 94% 30.01 in 6.2 mi SSE 11.5 mph - N/A   Partly Cloudy
9:55 PM 62.6 °F 59.0 °F 88% 30.01 in 6.2 mi SE 10.4 mph - N/A   Partly Cloudy
10:00 PM 63 °F 59 °F 83% 30.02 in 6 mi SE 10.4 mph - -   Scattered Clouds
11:55 PM 64.4 °F 59.0 °F 83% 29.98 in 6.2 mi East 5.8 mph - N/A   Scattered Clouds